Location: Bear Valley Community Church - Hurst
(32.8460°N, 97.1828°W)
Time: 06:50:16
(UTC+00:00)

Cosmos 1328 Rocket - Pass Details

Date: 07 July 2022
Orbit: 600 x 627 km, 82.5° (Epoch: 14 August)

Event Time Altitude Azimuth Distance (km) Brightness Sun altitude
Rises 09:27:39 0° 332° (NNW) 2,889 7.2 -20.8°
Reaches altitude 10° 09:30:34 10° 312° (NW) 1,973 6.1 -20.4°
Enters shadow 09:31:56 14° 295° (WNW) 1,692 5.6 -20.2°
